Powrót do katalogu

STARLINK-2379

AktywnyŁącznośćVLEO
NORAD 47798·PAYLOAD·🇺🇸 United States

Wystrzelony Mar 11, 2021 z Cape Canaveral Space Force Station

Loading…

Następne Przeloty (najbliższe 24 godziny)

TLE

ŚwieżeSource: CelesTrak SupGP

Epoka: Sep 15, 2026, 02:00 UTC

1 47798C 21018M   26258.08381944 -.00016916  00000+0 -54392-3 0  2585
2 47798  53.1587  77.7485 0001289  85.4814 238.9137 15.31714234    19

Śledź STARLINK-2379 w czasie rzeczywistym z AllMySat

Download on the App Store